RH
16 16 16 15 15 15 15 15 14 14 14 13 13 13 12 12 12 11 11 11 11 11 10 11 10 11 11 11 10 9 9 8 9 8 9 9 9 9 9 10 9 10 10 11 11 11 12 11 14 14 14 14 12 13 11 13 8 11 15 11 52 89 78 86 99 68 54 67 46 43 61 48 50 58 46 40 40 39 34 26 20 17 13 13 15 17 20 23
16 15 15 15 14 14 14 13 13 13 13 13 12 12 12 12 12 11 11 11 10 10 10 10 10 10 10 11 10 10 10 9 9 8 8 8 8 9 8 10 9 10 10 10 11 10 11 11 12 13 14 14 13 14 10 13 10 10 20 19 46 91 93 90 89 65 71 86 52 40 56 50 52 58 50 42 39 40 36 28 22 17 15 13 16 19 21 25
16 15 15 14 14 14 13 13 12 12 12 12 12 11 11 11 11 11 11 10 10 10 10 10 9 10 9 9 10 10 10 10 10 9 9 8 7 8 8 9 8 9 9 9 11 10 11 11 11 11 12 14 13 14 12 11 12 10 14 23 54 90 90 75 60 47 72 89 54 39 53 55 56 58 55 45 39 41 37 30 23 17 16 15 17 20 22 26
16 16 15 14 14 13 13 13 12 12 12 12 11 11 11 11 11 10 10 10 10 10 9 10 9 9 9 9 9 9 9 9 10 10 9 9 8 8 8 8 8 8 9 9 9 10 10 10 11 11 10 13 13 13 14 12 11 11 9 17 41 56 54 51 40 32 49 63 50 41 51 59 58 58 59 48 40 41 38 32 25 19 16 17 19 21 23 25
16 15 15 14 14 13 13 12 12 12 11 11 11 11 11 10 10 10 10 10 9 10 9 9 9 9 9 9 9 8 9 9 9 9 9 9 9 8 8 8 7 7 8 8 9 9 9 10 10 10 10 10 12 13 13 14 11 12 10 10 21 24 22 30 40 53 49 40 49 49 49 59 57 56 62 53 42 40 40 34 25 20 17 19 21 22 24 24
16 15 15 14 14 13 13 12 12 11 11 11 10 10 10 10 10 9 9 9 9 9 9 9 9 8 8 8 9 8 8 8 8 9 9 9 9 9 9 8 8 7 7 8 8 9 8 10 9 9 11 9 10 12 11 14 12 12 12 10 16 16 17 25 44 68 52 30 47 57 54 58 56 56 63 60 46 40 41 36 27 20 17 21 24 23 24 24
17 16 15 15 14 13 13 12 11 11 11 10 10 10 10 9 9 9 9 9 9 9 9 9 8 8 8 8 8 8 8 8 8 8 8 8 8 9 9 8 8 7 8 8 8 8 8 8 9 9 9 10 10 9 10 12 12 12 11 12 14 10 11 14 23 46 54 47 48 58 63 57 56 60 64 66 53 41 42 37 29 22 18 23 26 26 25 24
17 16 16 15 14 13 13 12 11 11 10 10 10 9 9 9 9 9 9 9 9 9 8 8 8 8 8 8 8 8 8 7 8 8 8 8 8 8 8 8 9 8 8 8 8 8 9 8 8 9 8 10 9 9 10 9 12 12 12 16 14 11 11 11 12 25 60 76 58 60 70 63 69 69 62 71 61 43 43 38 31 23 18 24 28 27 26 25
18 17 16 15 15 14 13 12 11 11 10 10 10 9 9 9 9 8 8 8 8 8 8 8 8 8 8 8 8 8 8 7 7 7 7 7 7 8 8 8 8 9 8 8 9 8 9 8 7 8 8 9 9 9 10 8 11 10 13 18 13 13 10 12 16 21 65 92 71 66 70 66 74 70 64 75 68 48 44 40 33 25 19 24 30 28 28 27
19 19 18 18 17 16 15 14 13 13 12 12 11 10 10 9 9 9 8 8 8 8 8 8 8 8 8 8 8 8 8 7 7 7 7 7 7 7 7 8 7 7 8 8 9 8 9 9 7 8 7 8 9 8 9 9 10 10 16 16 12 14 8 12 20 35 84 95 70 70 72 72 70 66 78 85 72 54 46 42 34 27 20 22 29 30 30 30
22 22 21 21 20 19 18 16 15 15 14 13 12 12 11 10 10 9 9 9 9 8 8 8 8 8 7 8 7 7 8 7 7 7 7 7 6 7 6 7 7 7 8 7 8 8 9 8 7 8 7 7 8 8 9 9 9 12 20 17 10 12 9 13 16 42 96 91 71 85 86 87 75 60 80 89 76 59 48 44 36 28 21 20 27 30 32 31
24 25 24 23 22 20 19 18 17 15 14 14 13 12 11 11 11 10 10 9 9 9 9 9 8 8 8 7 8 7 8 7 7 7 7 7 6 7 6 6 7 7 7 7 8 8 8 8 7 7 7 7 7 7 8 9 9 9 17 19 13 13 10 16 23 47 97 96 70 82 93 91 72 55 64 76 77 64 52 48 39 30 23 19 24 29 32 32
26 26 25 24 22 21 20 18 17 16 15 14 13 13 12 11 11 10 11 10 10 10 9 9 9 9 8 8 8 7 8 7 7 7 6 7 7 6 7 6 6 6 7 7 7 7 7 7 7 8 8 7 7 7 7 8 9 8 12 14 9 13 10 16 34 46 83 100 68 61 84 83 62 58 60 60 72 70 56 53 44 32 26 20 22 28 33 34
28 27 25 24 23 21 20 19 18 17 16 15 14 13 12 12 12 11 11 10 10 10 10 10 9 10 9 9 9 8 8 7 7 7 7 7 7 7 6 6 6 6 6 6 6 7 7 7 7 8 8 8 7 7 8 7 8 10 18 26 19 17 15 23 47 55 74 100 79 54 71 80 59 53 60 56 63 73 62 56 49 35 27 22 22 29 32 34
28 27 26 25 24 22 21 20 19 18 17 16 15 14 14 13 12 12 12 11 10 10 10 10 10 10 10 9 9 8 8 8 8 7 7 7 7 7 7 6 6 6 6 6 6 6 6 7 7 7 7 8 8 7 8 7 8 8 18 37 33 21 18 21 47 75 89 91 71 45 54 88 78 53 67 65 54 73 72 56 52 40 29 24 23 29 32 33
28 28 27 26 25 23 23 22 20 20 18 17 16 15 15 13 13 12 12 11 11 11 10 10 10 9 10 9 9 9 9 8 8 7 7 7 7 7 7 7 6 6 7 6 6 6 6 6 6 7 7 7 8 8 9 7 8 7 8 18 23 27 27 19 29 58 76 74 66 44 35 76 96 75 85 81 56 72 78 58 52 46 32 25 24 28 33 32
29 29 28 26 25 25 24 23 22 21 20 19 17 16 15 14 14 13 12 12 11 11 11 10 10 10 9 9 9 9 9 9 8 8 8 7 7 7 7 7 7 7 7 6 7 6 6 6 6 6 6 7 7 8 9 7 7 8 8 7 13 32 34 24 26 29 30 36 47 43 28 50 86 92 100 98 72 67 75 62 51 49 38 27 25 28 33 30
31 30 29 27 27 26 25 24 22 22 21 20 18 17 16 15 14 13 12 12 12 12 12 11 11 10 10 10 10 9 9 9 9 9 9 8 8 7 7 7 7 7 7 7 7 6 6 6 6 6 6 7 7 7 7 8 8 6 9 8 7 19 26 25 33 40 42 42 47 60 55 46 66 91 97 96 82 65 70 68 52 51 46 32 26 27 33 31
32 31 30 28 28 27 26 25 24 23 22 21 19 18 16 15 14 14 14 13 13 12 12 12 11 11 11 11 11 11 10 10 10 10 10 9 9 8 8 8 7 8 7 7 7 7 7 6 6 6 6 6 6 7 6 7 9 8 8 9 6 9 19 28 30 41 65 76 77 87 81 53 57 91 95 89 93 81 70 67 56 52 49 40 31 26 32 34
33 32 31 29 29 28 27 26 25 25 24 22 20 19 18 16 16 15 15 14 13 13 13 12 12 12 12 12 12 12 11 11 11 11 11 10 10 9 9 8 8 8 8 8 7 7 7 6 6 6 6 6 6 6 7 7 7 8 8 7 9 8 11 26 33 28 48 80 91 87 75 48 44 84 100 89 100 100 76 63 59 55 52 45 36 28 29 34
35 32 31 31 30 29 28 27 27 26 25 24 22 20 19 18 17 16 16 15 14 14 13 13 13 13 12 13 13 13 13 13 12 12 12 11 11 11 10 9 9 9 8 8 8 8 7 7 6 6 6 6 6 5 6 7 6 7 9 7 9 10 6 18 34 27 35 73 87 70 60 37 25 70 103 90 92 101 87 74 67 57 53 49 41 34 28 31
34 32 31 31 30 29 29 28 28 27 26 25 23 21 20 19 18 17 16 16 15 15 14 14 14 13 13 13 14 14 14 14 14 13 13 12 12 12 11 11 10 10 9 9 8 8 8 7 7 6 6 5 6 6 5 6 7 6 8 9 8 9 8 9 21 24 25 51 67 59 48 24 24 74 105 93 86 92 94 92 80 59 52 53 43 37 30 28
34 32 32 31 31 30 30 30 29 28 27 25 24 23 22 20 19 18 17 16 16 15 15 15 14 14 14 14 14 14 14 15 15 14 14 14 13 12 12 12 11 11 10 10 9 9 8 8 7 7 7 6 6 5 6 5 6 7 6 9 8 7 9 6 12 19 17 27 42 55 48 19 37 89 105 99 91 89 99 100 84 62 52 55 47 37 33 27
33 33 32 32 32 31 31 31 30 28 28 27 26 25 23 22 20 19 18 17 16 16 15 15 15 15 15 15 15 14 14 15 16 16 17 16 15 15 14 13 13 12 11 11 10 10 9 8 8 8 7 6 6 5 6 5 5 7 6 7 8 7 8 7 9 13 15 16 19 41 47 23 48 94 102 102 88 79 99 97 77 66 56 52 51 41 35 31
34 34 33 33 33 32 32 31 30 30 29 28 27 26 25 25 23 20 19 18 17 16 16 15 15 15 16 17 18 18 19 19 20 21 21 22 21 20 18 17 16 14 13 11 11 10 10 9 8 9 8 6 7 5 5 6 5 6 6 6 7 7 8 8 9 8 12 16 15 26 34 32 64 97 101 104 86 73 96 101 89 86 67 47 50 48 39 37
35 34 34 34 34 34 32 32 32 31 29 28 26 25 26 26 24 22 20 20 20 19 19 19 19 19 21 24 26 27 28 28 29 28 28 28 26 24 22 21 19 18 17 14 13 11 9 10 9 8 9 7 7 7 5 6 5 6 6 6 6 7 8 8 9 9 10 16 23 22 17 37 83 104 100 105 95 77 84 95 101 103 80 50 49 53 44 42
35 35 35 35 35 34 33 33 33 31 28 26 25 24 25 26 26 23 22 25 28 30 29 30 30 30 31 33 34 35 35 35 35 33 33 31 29 27 25 23 22 20 20 18 15 14 11 10 10 9 9 8 7 7 7 6 6 6 5 6 6 6 8 8 8 9 8 11 24 25 16 43 92 105 95 101 101 84 77 88 101 103 90 64 55 56 47 45
35 35 36 36 35 34 34 35 33 30 27 26 25 24 24 26 26 24 23 28 36 40 39 39 38 37 36 37 37 37 37 37 37 35 34 33 31 29 27 25 23 21 21 20 17 16 14 12 11 10 9 9 8 7 7 7 6 6 5 6 6 6 7 8 8 8 8 8 18 26 17 36 87 104 91 94 101 87 74 84 99 102 93 70 57 58 52 47
35 36 36 35 35 36 36 35 32 28 27 26 26 25 25 26 27 24 23 28 38 43 44 43 42 40 39 38 38 37 37 37 37 36 35 35 33 31 29 26 24 23 21 20 19 17 16 15 12 11 10 9 9 8 8 7 6 5 6 6 5 7 7 6 8 7 8 9 13 25 17 19 71 107 96 94 104 90 69 77 100 105 92 74 59 58 57 50
36 36 35 36 36 37 37 34 30 27 27 27 27 26 26 26 27 25 24 27 37 45 48 48 47 45 44 43 42 41 40 39 38 37 37 37 36 32 30 28 24 23 21 19 19 17 16 16 14 13 12 10 9 8 8 7 7 6 6 7 5 6 7 5 8 7 8 10 6 20 27 17 56 105 101 88 92 83 68 77 100 100 86 80 66 56 59 54
36 35 36 37 38 37 35 32 29 27 27 27 26 26 26 26 27 26 24 26 35 45 51 53 52 51 50 48 47 45 43 41 39 39 39 38 38 35 32 29 26 23 22 20 18 17 16 15 14 14 13 12 10 9 9 7 8 8 6 7 5 6 7 5 8 7 7 11 5 17 36 26 45 96 105 84 74 71 69 80 98 96 80 75 66 56 60 59
36 36 37 37 36 34 32 30 28 27 26 26 25 26 26 26 27 26 25 25 30 40 51 58 58 56 54 52 51 49 46 45 42 42 43 42 41 39 35 31 28 25 23 22 20 18 17 15 14 14 13 13 12 9 10 8 8 9 6 6 6 5 7 5 7 7 6 11 7 12 33 29 35 82 109 94 75 69 70 77 91 94 79 69 66 62 59 60
36 35 34 34 32 31 29 28 28 26 25 24 24 25 26 26 26 25 25 25 26 32 43 55 60 59 57 55 53 52 49 48 47 46 45 45 44 43 39 34 31 29 26 24 24 22 20 18 15 14 13 12 13 11 10 9 8 9 7 7 6 5 7 6 6 7 6 10 9 9 26 32 35 70 103 102 87 74 66 72 82 81 72 65 63 61 59 60
32 31 30 29 29 28 28 27 26 25 24 24 24 25 25 25 25 25 25 25 24 26 33 44 54 58 57 56 54 53 51 51 52 51 49 47 46 45 43 38 34 32 31 29 28 25 22 21 17 17 16 13 14 13 11 10 9 8 8 7 7 6 6 6 5 7 6 7 10 10 21 29 32 59 93 103 98 82 63 67 78 69 58 59 57 54 58 63
29 28 26 27 27 26 27 26 25 24 24 24 24 24 24 24 25 24 25 25 25 25 26 31 42 51 55 55 54 52 52 53 54 56 54 51 48 46 44 42 38 35 35 33 31 27 24 23 20 19 18 15 15 14 12 11 9 9 9 7 8 7 5 6 5 6 7 6 8 12 22 30 26 42 80 101 103 93 71 66 79 70 52 54 65 68 63 60
27 26 25 25 25 25 25 24 24 25 24 24 23 23 24 23 23 24 23 24 24 24 24 24 29 38 46 50 52 51 51 53 56 59 59 55 51 48 45 44 42 39 40 37 32 27 24 23 22 21 20 18 17 15 14 12 10 9 9 8 9 7 6 7 6 5 7 7 7 9 21 30 23 25 61 96 104 100 85 73 77 71 53 56 79 92 79 60
28 26 25 24 24 23 24 24 25 26 25 25 24 23 23 22 22 22 22 23 23 22 23 23 22 27 34 40 45 48 51 57 60 61 62 59 53 49 49 48 45 44 43 37 31 28 25 24 23 22 21 20 19 17 15 13 11 9 9 10 8 8 7 6 7 7 6 7 7 7 12 22 21 16 40 84 104 100 97 92 83 66 52 56 70 85 89 75
36 30 25 23 23 23 22 25 26 27 28 27 25 23 22 22 21 20 20 21 21 21 21 21 20 22 26 32 39 47 54 60 64 64 64 63 56 51 55 55 50 49 45 37 32 30 27 25 24 23 22 21 20 20 17 15 13 10 11 13 9 8 10 7 7 7 6 7 7 7 9 15 20 15 26 72 103 99 98 104 94 67 52 57 58 68 92 97
48 43 36 26 22 23 24 26 28 30 33 34 32 28 24 22 21 20 21 21 20 19 19 19 20 21 24 31 40 51 58 62 65 66 66 66 62 60 64 60 53 52 46 36 34 32 28 26 25 24 23 23 21 20 20 17 15 12 11 11 10 8 9 8 9 7 6 8 6 7 11 12 18 15 16 58 100 102 96 101 100 77 55 56 58 61 85 107
56 56 52 39 30 26 25 28 31 34 38 42 44 41 35 31 26 23 22 22 22 21 21 22 23 27 32 39 48 57 61 62 64 67 67 68 70 73 74 64 55 51 43 37 36 34 30 28 27 25 23 23 22 21 21 18 18 21 16 10 11 12 10 8 9 8 7 8 6 8 11 10 19 18 9 36 82 100 99 99 103 95 69 53 54 58 76 102
67 65 62 52 44 40 34 33 35 38 43 48 52 53 52 48 42 37 31 27 26 26 28 31 33 37 42 48 55 61 62 62 63 67 70 73 78 85 82 66 55 49 40 37 38 35 33 31 29 28 25 24 24 23 22 21 21 26 21 12 12 19 17 9 9 11 7 8 8 7 8 8 17 26 16 18 53 89 103 99 101 106 89 57 47 55 65 81
78 78 72 61 55 53 49 46 45 45 48 53 57 60 61 59 58 56 50 43 39 34 32 35 37 42 47 51 56 58 59 59 61 67 75 80 87 94 86 65 52 46 40 40 42 38 37 35 31 31 28 25 26 24 24 23 19 20 21 16 13 23 29 16 9 12 7 7 9 5 8 7 11 33 31 15 40 85 102 101 100 105 93 60 42 51 57 63
74 82 82 73 67 63 59 59 57 55 57 60 62 65 65 64 64 64 62 60 59 54 48 43 39 40 43 46 50 51 53 55 59 71 83 87 94 97 83 61 48 43 42 45 47 43 42 40 35 33 30 28 27 27 26 24 20 17 19 19 13 19 37 30 12 11 9 7 8 5 8 7 7 35 41 22 50 96 102 97 101 101 92 66 42 42 53 60
67 75 79 77 76 72 69 68 66 64 66 67 67 68 69 69 69 69 69 68 69 69 67 65 61 57 52 50 50 50 52 58 67 83 91 92 98 95 73 53 45 43 45 50 51 49 47 45 41 37 33 30 28 29 28 24 21 18 16 24 22 17 31 36 20 17 16 8 7 6 7 8 13 38 46 30 52 94 102 97 100 100 96 80 52 37 47 58
65 68 73 73 72 71 71 71 72 74 75 75 74 72 73 73 72 76 80 81 81 80 80 81 82 81 79 77 76 73 74 81 88 96 95 95 101 90 62 47 45 45 48 54 55 54 53 51 48 42 36 32 29 29 30 25 25 25 19 26 32 22 26 36 29 26 25 16 11 6 4 12 23 37 42 36 49 82 101 99 96 100 102 92 68 42 39 51
68 66 70 73 70 66 65 66 73 78 81 85 82 77 78 79 79 84 85 82 84 85 87 92 93 94 95 95 97 96 97 100 101 99 96 98 98 78 51 44 47 48 51 56 57 58 58 56 52 47 41 36 32 30 30 29 30 32 28 29 33 27 27 35 34 30 27 21 17 10 5 13 24 28 28 33 49 71 95 101 95 100 104 99 87 58 37 44
74 69 70 72 71 66 62 64 70 72 77 84 82 82 85 77 73 80 72 65 74 74 72 83 94 98 99 101 103 105 105 105 100 96 99 99 85 62 47 46 50 51 53 56 58 60 61 58 54 52 48 41 37 33 30 31 31 29 29 30 34 38 37 28 26 29 26 21 19 18 13 10 17 24 22 29 43 56 84 103 97 99 103 100 100 81 47 40
77 76 71 70 73 70 63 64 67 65 69 73 71 76 74 56 56 68 56 52 69 65 54 67 82 86 89 97 102 103 103 102 95 97 105 95 67 50 47 49 51 52 51 54 59 60 61 60 55 54 54 47 41 37 32 31 32 29 27 24 28 53 64 41 23 30 34 29 21 18 17 8 9 20 19 24 37 49 80 103 94 95 104 99 102 97 67 46
78 80 76 70 72 72 67 65 64 60 60 59 56 60 57 44 48 54 46 50 61 52 46 57 66 69 75 84 89 90 90 91 90 98 100 78 53 49 51 48 49 51 50 54 59 60 60 61 57 55 58 52 44 41 36 31 33 35 37 29 22 41 64 57 37 31 34 35 24 16 20 14 9 18 20 20 29 43 75 100 91 93 106 100 99 103 86 63
78 81 82 74 70 74 72 65 62 58 56 54 52 55 54 46 42 40 42 51 50 42 44 49 51 59 65 67 72 74 76 81 85 85 75 55 48 53 51 46 48 50 53 56 58 60 62 63 61 58 58 55 48 44 40 34 32 34 37 36 26 22 33 49 51 37 28 37 34 22 24 25 21 26 23 20 29 42 64 86 87 93 105 100 97 104 97 77
78 81 85 77 71 76 75 68 64 61 60 62 61 60 55 43 36 37 41 43 37 34 42 44 43 50 53 54 61 63 65 73 70 58 49 46 50 55 50 46 47 50 55 58 56 58 61 62 63 61 60 59 52 46 43 38 33 32 30 29 28 22 19 31 48 47 32 33 37 26 19 27 40 43 25 15 34 53 61 65 69 84 104 102 97 103 101 83
82 82 85 81 73 74 76 73 69 62 63 70 70 64 54 39 34 36 34 32 30 29 36 40 38 39 41 46 53 52 52 55 48 39 43 47 48 51 51 48 49 51 56 60 59 58 59 60 61 61 62 63 55 47 45 40 35 36 33 28 24 24 25 26 37 46 36 27 33 29 17 17 34 48 38 25 40 61 61 47 43 68 101 105 96 102 103 87
Wind_Speed
11 12 12 13 14 15 16 16 17 18 18 19 19 20 21 21 22 23 24 25 26 27 29 30 32 33 34 34 35 36 36 37 38 39 39 39 39 39 40 39 39 38 37 36 36 35 34 33 32 31 29 27 25 23 21 18 16 14 13 13 12 10 11 13 13 8 9 10 9 9 9 11 11 12 14 16 18 20 21 22 22 22 20 17 15 15 15 14
12 12 13 14 15 16 17 17 18 19 20 20 21 21 21 22 22 22 23 24 25 26 27 28 30 31 33 34 35 35 36 36 37 38 39 39 39 39 39 40 39 38 38 38 37 37 36 35 34 33 31 30 28 26 23 21 19 17 15 15 13 12 13 13 11 7 8 10 8 8 8 10 11 11 13 15 17 20 20 21 22 22 20 17 16 15 15 14
13 13 14 15 16 17 18 18 19 20 21 22 22 22 23 23 23 23 23 24 25 25 26 27 28 29 30 32 33 35 35 36 37 37 38 39 39 39 39 39 39 39 39 38 38 38 37 37 36 34 33 32 30 28 26 24 22 20 18 17 16 15 15 14 12 10 10 10 8 8 8 8 10 10 12 14 16 19 20 21 22 22 21 18 17 16 15 14
14 15 16 17 18 18 19 20 20 21 22 23 23 24 24 24 24 24 25 25 26 26 26 26 27 27 28 29 31 33 34 35 36 37 38 38 39 39 39 39 39 39 39 39 38 38 38 38 37 36 35 34 32 31 29 27 25 23 22 20 18 15 15 16 14 12 11 11 9 8 8 8 8 9 11 12 15 17 19 20 21 22 21 19 17 16 15 14
17 18 19 19 20 21 22 22 23 23 24 24 25 25 25 25 25 26 26 27 27 27 27 27 27 27 27 28 29 30 32 33 35 36 37 38 38 39 39 39 39 39 39 39 38 39 39 39 39 38 37 35 34 33 31 30 28 26 24 23 21 18 18 18 14 13 13 11 9 8 8 8 7 7 9 11 13 16 18 19 21 22 21 19 17 16 15 15
20 20 21 22 23 24 24 25 25 25 26 26 27 27 27 27 27 27 28 28 29 29 29 29 29 28 28 28 28 29 30 31 33 34 36 37 38 39 39 39 39 39 39 38 38 39 39 40 39 38 38 37 36 35 34 33 31 28 26 25 23 21 20 18 15 15 14 13 11 8 8 7 5 6 8 10 12 15 17 18 20 21 21 19 18 16 15 15
22 23 23 24 25 26 27 27 28 28 28 29 29 29 29 29 29 29 29 30 30 30 31 31 31 31 30 29 29 29 29 30 31 32 34 35 37 38 39 39 39 39 39 39 38 38 39 39 40 39 38 38 38 37 36 34 32 30 28 27 25 23 21 19 17 16 14 14 12 8 7 7 5 5 7 8 11 13 15 17 19 20 20 19 18 17 16 15
24 25 26 26 27 28 29 29 30 30 30 31 31 31 31 31 31 31 31 31 32 32 32 33 33 33 32 32 31 31 30 30 30 31 32 33 35 36 38 38 39 39 39 39 39 38 39 39 40 39 39 39 39 38 37 35 34 33 31 29 28 25 22 20 20 18 15 15 12 8 6 6 6 5 6 6 9 11 14 16 17 19 18 18 18 17 16 16
26 27 28 28 29 30 30 31 31 31 31 32 33 33 33 33 33 33 33 33 33 34 34 34 34 34 34 34 34 33 33 32 31 31 31 32 33 34 36 37 38 39 39 39 39 39 39 39 40 39 40 40 39 38 37 36 36 35 33 32 30 27 24 23 23 21 17 16 12 8 6 5 7 7 6 5 7 10 12 14 16 17 17 17 17 17 16 16
28 29 29 30 31 31 32 32 32 32 32 33 33 33 34 34 34 34 34 34 34 35 35 35 35 35 36 36 35 36 35 34 34 33 32 32 33 33 34 35 36 38 39 39 39 39 40 40 40 40 40 40 39 39 38 38 37 36 35 34 32 29 26 26 26 21 18 18 13 9 7 6 7 8 7 5 5 8 10 13 15 16 16 16 16 16 16 16
29 30 31 32 33 33 33 33 33 33 33 32 32 32 32 33 33 34 34 35 35 36 36 36 36 36 36 37 37 37 37 37 36 36 35 34 34 33 34 34 35 36 37 39 39 40 40 41 40 40 40 40 39 39 38 38 38 37 36 35 35 32 29 29 28 21 18 18 15 13 11 9 8 10 9 6 4 5 8 11 13 14 15 15 14 15 15 15
31 32 33 33 33 34 34 34 33 33 32 32 31 31 30 30 31 31 32 34 35 36 36 36 36 36 37 37 37 38 38 38 38 38 38 37 36 35 35 34 34 35 36 37 38 39 40 41 40 40 40 40 40 39 39 39 39 39 38 37 36 33 31 31 29 23 19 18 19 18 15 12 9 10 10 6 3 4 6 9 12 13 13 14 14 14 14 14
33 33 33 33 34 33 33 33 33 32 32 31 31 30 30 29 29 29 30 31 32 34 35 36 36 36 36 37 37 38 38 39 39 39 40 39 39 38 37 36 35 35 35 36 37 38 39 40 41 40 40 40 40 40 40 40 40 39 38 39 38 35 33 31 30 27 23 20 20 20 17 14 11 10 10 8 5 2 4 6 9 11 12 13 13 13 14 13
34 34 34 34 34 34 33 32 32 31 31 30 30 30 29 29 28 27 27 28 30 31 33 34 35 35 36 36 37 38 39 39 39 40 40 41 41 40 40 39 37 36 36 36 36 37 38 39 40 40 40 40 40 40 40 41 40 39 39 40 39 37 35 32 30 29 27 22 20 20 17 15 14 13 12 11 8 3 2 4 7 9 10 11 11 12 13 13
35 35 35 35 34 34 33 32 31 31 30 30 30 29 29 28 28 27 27 27 27 29 30 32 33 34 35 36 37 37 38 39 39 40 40 41 41 42 42 41 40 39 38 37 37 37 37 38 39 39 40 41 41 41 41 41 42 43 43 41 39 38 38 36 32 27 26 25 23 21 19 17 15 14 14 13 10 6 1 2 4 6 8 9 10 11 11 13
36 36 36 36 35 35 34 33 32 31 31 30 29 29 28 28 27 27 26 26 26 27 28 30 31 33 34 35 36 36 37 38 39 39 40 41 41 42 42 43 42 42 41 40 39 38 37 38 38 39 39 40 41 42 43 43 43 44 45 44 40 38 39 40 36 30 26 25 25 23 21 19 16 14 15 15 13 9 4 2 2 4 6 7 8 9 10 12
38 38 38 37 36 36 35 34 33 32 32 31 30 29 28 27 27 26 25 25 25 26 27 28 30 31 32 34 35 35 36 37 38 39 39 40 41 42 42 43 43 43 43 43 41 40 39 38 38 38 39 40 41 43 44 44 44 44 45 45 43 40 40 40 37 34 31 29 27 24 24 22 19 19 18 16 15 12 7 4 2 2 4 5 6 7 8 10
39 39 39 38 37 37 36 35 35 33 33 31 30 29 28 27 26 25 24 24 24 25 26 27 28 29 31 32 33 34 35 36 37 37 38 39 40 41 42 42 43 43 44 44 44 43 41 40 40 40 40 40 41 44 44 44 44 45 44 45 45 44 42 40 37 34 31 31 28 25 26 25 22 22 21 19 18 15 10 7 5 3 1 2 3 4 6 8
41 40 40 39 38 38 37 37 35 34 33 32 30 29 27 26 25 24 23 23 23 24 24 25 27 28 29 30 31 32 33 34 35 36 37 38 39 40 41 42 42 43 44 45 45 45 44 43 43 42 41 41 42 43 43 45 45 45 45 45 46 46 44 41 40 38 33 29 29 28 28 28 24 23 23 22 20 18 14 11 8 6 3 1 0 2 3 6
42 42 41 40 39 39 39 38 36 35 33 32 30 28 27 25 24 22 22 21 22 22 23 24 25 26 26 28 29 30 31 32 33 34 35 36 37 39 40 41 42 42 43 44 45 46 46 46 45 44 43 43 43 42 43 45 46 46 47 47 47 48 48 44 43 44 40 33 31 32 31 30 27 24 23 23 22 21 18 14 11 9 6 4 3 2 1 3
43 42 41 41 40 40 39 38 37 35 33 31 29 28 26 24 23 21 20 20 20 20 21 22 23 23 24 25 25 27 28 29 30 31 33 34 35 37 38 40 41 42 43 44 45 46 47 47 47 46 45 44 43 43 44 45 46 47 48 48 48 49 50 49 47 47 45 39 36 37 36 32 29 26 25 26 25 23 20 17 15 12 10 8 6 5 4 2
43 42 41 41 41 41 40 38 37 35 33 31 29 27 25 24 22 20 19 19 19 19 20 20 21 21 22 22 23 24 24 25 26 27 29 31 32 34 35 37 39 40 42 43 44 45 46 47 48 48 48 46 45 44 45 45 45 47 47 49 50 51 51 51 49 48 48 46 40 39 39 35 31 29 28 29 28 25 22 20 19 16 13 10 9 7 6 5
43 42 42 41 41 40 39 38 36 35 32 30 28 26 24 23 21 19 18 18 18 18 19 19 20 20 20 20 21 22 22 22 23 23 25 27 28 30 31 33 35 37 40 41 43 44 46 47 49 49 50 49 48 46 46 46 46 47 48 50 51 52 51 51 50 50 50 50 44 39 40 38 35 32 30 30 30 28 26 25 23 19 15 13 11 9 8 7
42 42 42 41 41 40 39 37 36 34 32 30 28 26 24 22 20 18 17 17 17 17 18 18 19 19 19 19 19 20 20 20 21 21 22 23 24 26 28 30 32 34 36 38 41 43 45 47 48 50 51 50 50 48 47 46 47 47 48 50 52 52 52 51 51 52 51 52 50 45 42 40 38 37 35 33 32 31 29 27 24 21 18 16 12 10 9 8
42 42 42 41 40 39 38 36 35 33 31 29 28 25 23 21 19 17 16 16 16 16 16 17 18 18 17 17 17 17 18 18 19 19 20 20 21 23 25 27 28 30 32 35 38 40 43 45 47 49 50 51 51 50 48 47 47 48 49 50 51 52 51 52 53 54 54 53 53 50 45 42 41 40 38 36 35 35 31 28 26 23 21 19 15 12 10 9
42 42 41 40 39 38 36 35 34 33 31 29 27 25 22 20 18 16 15 16 15 14 14 15 15 16 15 15 15 15 16 16 16 16 17 18 19 21 22 24 26 28 29 32 34 37 40 43 45 47 49 51 52 51 51 49 48 48 49 49 50 50 51 53 55 56 56 54 52 51 48 45 44 43 42 38 37 37 34 29 27 25 23 20 16 14 13 11
42 41 40 39 37 36 35 34 34 32 30 27 25 23 21 19 18 16 16 16 14 14 13 14 14 14 14 15 15 15 15 14 14 15 16 17 19 20 21 23 25 26 28 29 32 34 37 40 42 45 47 49 51 52 52 52 51 50 49 49 50 50 51 54 56 57 58 56 54 53 51 48 47 46 46 42 38 38 36 32 28 27 26 22 19 17 15 14
40 39 38 37 36 35 34 34 33 31 28 26 24 22 20 19 17 17 18 18 17 16 15 15 15 15 15 15 15 15 14 14 14 15 16 18 19 20 22 23 25 26 27 29 30 32 34 37 40 42 45 47 50 52 53 54 53 51 50 51 51 51 52 54 56 58 58 57 56 55 53 52 50 48 49 46 41 40 39 36 32 30 29 25 22 20 18 16
39 38 37 36 35 34 34 33 31 29 26 25 23 21 19 18 18 18 20 21 19 18 17 17 17 17 16 16 15 15 15 15 15 16 17 19 20 21 23 24 26 27 28 30 31 32 33 35 37 39 42 45 48 51 52 54 54 51 52 53 52 53 54 56 58 58 58 58 58 56 54 54 53 50 50 49 46 44 42 39 36 33 31 28 26 23 21 19
38 37 35 35 34 34 33 32 30 27 25 24 23 21 19 18 18 19 21 22 22 21 20 18 18 18 17 16 16 16 16 16 17 18 18 19 21 23 24 26 27 28 29 30 32 33 34 36 37 39 40 43 46 49 51 54 55 54 55 54 53 54 55 57 58 58 59 59 59 56 54 56 56 53 50 50 49 47 44 42 38 35 33 31 29 26 24 22
37 36 35 34 34 33 32 31 29 27 26 24 23 22 20 19 19 19 22 23 24 24 22 21 20 19 18 18 17 17 18 18 18 19 20 21 22 24 26 27 28 29 30 31 32 33 34 36 38 39 41 42 44 46 49 52 54 56 57 56 55 56 57 58 58 57 59 60 58 57 56 57 59 56 52 53 53 50 47 45 42 38 36 34 31 29 27 25
37 36 35 34 33 33 31 30 29 27 26 25 23 22 21 20 19 20 22 24 26 26 25 23 22 21 20 19 19 19 19 20 20 20 21 22 24 26 28 29 30 30 31 32 32 33 34 35 38 40 42 43 44 46 48 51 54 55 57 58 58 57 58 60 59 58 60 60 59 59 59 58 60 60 56 56 56 52 49 48 45 41 38 36 34 32 30 28
37 36 35 34 33 32 30 29 28 27 26 24 23 22 22 21 21 21 22 24 27 28 28 27 25 24 23 22 21 21 20 21 22 22 23 23 25 27 30 31 31 31 32 32 32 33 33 35 37 39 42 44 45 47 48 49 52 54 58 60 59 58 59 60 59 60 61 62 61 62 62 60 61 63 59 56 56 54 50 50 48 44 42 39 37 35 32 30
37 36 34 33 31 30 28 27 26 25 24 23 22 21 22 22 22 22 22 24 27 29 30 30 28 27 25 24 23 23 22 22 23 24 25 25 26 27 30 33 32 31 31 30 31 32 32 33 36 37 40 43 45 48 50 50 51 53 57 60 60 60 60 59 60 62 63 63 63 63 63 61 62 64 61 56 55 55 53 51 50 48 46 42 39 37 35 32
35 34 33 31 30 28 26 25 24 23 22 22 21 20 21 22 22 22 22 24 26 28 30 31 31 30 28 26 25 24 24 24 24 25 27 27 28 28 30 33 33 31 30 29 30 30 30 32 34 35 38 41 43 47 51 52 52 53 56 59 61 62 61 59 61 63 63 62 63 63 63 63 64 65 63 57 54 55 55 53 51 50 47 45 41 39 37 35
32 32 31 29 28 25 24 23 22 21 20 20 20 19 19 21 21 21 22 23 25 26 28 31 32 31 30 28 27 26 25 25 25 26 28 29 29 30 31 32 32 30 28 27 28 29 29 30 31 33 36 39 41 44 49 53 54 54 54 57 62 63 61 60 62 63 63 62 64 66 65 65 66 66 65 61 55 55 57 55 53 52 49 47 44 41 39 38
31 29 29 28 26 24 22 21 20 19 19 19 18 17 18 19 20 20 20 22 23 25 26 28 30 30 30 29 28 27 26 26 27 27 29 30 31 31 32 32 31 28 27 26 26 27 28 28 29 31 34 36 38 42 46 51 55 55 55 58 61 62 63 64 64 63 64 64 65 67 67 67 68 68 68 65 59 56 57 58 57 55 52 49 46 42 38 38
30 28 28 27 25 22 20 20 20 19 18 18 17 17 16 17 17 17 18 19 21 23 24 26 27 28 29 28 27 27 26 26 27 28 29 31 32 32 33 33 31 26 25 25 25 26 26 26 26 29 31 33 35 39 43 47 52 55 57 58 59 62 64 65 65 65 66 67 67 68 69 68 69 71 70 69 65 59 57 59 59 57 55 52 49 44 38 37
31 29 28 27 25 22 21 20 20 19 19 18 18 17 16 16 16 16 16 17 19 21 22 23 24 25 26 26 26 26 27 27 28 30 31 32 33 34 34 34 29 24 24 24 24 24 25 24 25 26 28 30 32 36 40 44 48 52 57 59 59 63 66 66 67 67 67 69 70 71 70 69 70 72 72 71 69 62 57 57 59 59 58 55 52 50 44 40
35 32 31 29 26 24 23 22 22 21 21 20 20 20 19 18 18 17 16 17 19 20 21 22 23 24 25 26 26 26 28 29 29 31 32 33 34 35 36 33 27 23 23 22 22 23 23 23 23 24 25 27 30 33 37 41 43 47 54 59 61 64 66 67 69 70 70 71 72 73 72 70 70 72 74 75 71 64 59 56 58 61 61 59 56 55 53 48
36 35 35 33 30 28 26 25 25 25 24 24 24 23 23 22 21 20 20 20 20 21 22 23 24 25 26 27 27 28 29 31 31 32 33 34 34 35 36 32 25 22 22 21 21 21 21 21 21 22 23 24 27 31 34 39 42 44 50 57 62 64 65 67 71 73 74 73 73 74 72 70 70 70 74 76 71 66 62 57 57 63 64 64 61 58 58 54
34 34 36 36 34 33 31 30 29 29 28 28 28 27 27 26 26 26 25 25 24 25 25 26 27 28 29 30 29 30 31 32 33 33 34 35 34 34 34 29 23 22 21 20 20 20 19 19 19 20 22 22 24 28 32 37 41 43 47 53 61 64 65 68 72 75 76 75 75 76 73 71 71 69 72 77 70 65 66 61 60 66 68 67 65 61 60 59
33 33 34 35 36 36 35 35 34 33 32 32 32 31 31 31 30 31 31 30 30 29 29 30 31 32 32 32 32 32 33 34 34 35 35 35 34 33 31 27 23 22 20 18 19 19 19 19 18 18 20 21 22 24 28 33 38 40 44 50 58 65 66 68 72 75 76 77 77 77 75 73 73 68 69 75 66 59 67 68 65 68 70 69 67 63 61 61
34 32 33 33 34 35 36 37 38 37 37 36 36 35 35 35 35 35 35 35 35 34 34 34 34 35 35 35 34 34 35 36 36 36 36 35 33 31 28 24 23 22 20 18 19 19 19 18 18 18 18 19 20 22 23 28 33 37 42 48 55 63 65 67 73 75 76 78 79 79 77 74 72 67 68 74 67 59 66 70 67 67 69 69 67 65 63 62
36 33 32 32 32 33 34 35 36 37 38 39 39 38 38 38 37 37 38 38 37 37 37 37 38 38 38 37 37 36 36 37 37 37 36 34 31 29 26 23 23 22 19 18 19 19 19 19 18 18 18 17 18 19 20 22 27 34 40 47 54 61 65 67 73 76 77 79 80 80 78 75 72 70 72 75 70 65 68 70 67 65 68 70 68 65 64 62
38 35 33 32 32 32 33 33 34 35 35 37 38 37 37 38 36 36 36 35 34 35 35 36 38 39 40 39 39 38 38 39 38 37 35 32 28 26 25 23 22 21 19 18 19 19 19 19 19 18 17 16 16 17 17 19 23 30 39 47 53 60 65 69 73 77 78 78 79 80 79 77 74 73 74 74 72 70 70 70 67 65 67 71 69 66 64 63
40 36 35 34 32 32 32 32 32 32 31 32 32 32 33 33 30 30 31 30 30 33 33 32 34 36 37 38 38 38 39 39 38 35 33 30 26 25 25 23 21 20 18 18 18 19 19 20 19 18 17 16 15 15 16 16 19 27 37 47 52 56 61 69 74 76 77 78 80 80 79 79 77 73 74 76 75 73 72 72 70 65 65 69 70 68 66 65
41 38 36 34 33 32 32 31 31 29 27 26 26 26 28 28 25 27 30 28 29 33 32 31 32 34 34 35 35 36 37 36 34 31 29 28 25 24 24 22 20 19 17 17 17 18 18 19 19 18 17 17 16 15 15 16 16 21 31 43 52 55 58 67 74 77 79 79 80 81 78 79 79 74 74 78 77 73 74 77 75 67 64 65 67 68 68 66
43 40 37 35 34 33 32 31 31 28 24 23 23 23 26 25 24 27 28 27 30 33 32 31 32 33 33 33 33 34 33 31 28 26 25 26 25 24 23 20 18 17 16 16 16 17 17 18 18 18 17 17 16 15 15 15 15 17 24 36 49 56 58 62 71 78 80 78 79 80 77 75 76 74 74 78 79 76 76 81 79 70 64 64 64 66 68 66
44 40 38 36 34 32 32 32 31 28 24 23 23 23 25 25 25 25 26 28 31 31 31 31 31 31 32 32 31 31 28 25 22 22 24 25 24 23 22 19 17 16 15 15 15 15 16 17 18 17 18 18 17 15 15 15 15 16 20 29 42 53 57 59 66 76 80 79 80 81 78 73 71 72 76 77 77 77 78 82 82 72 64 64 65 65 68 67
45 41 39 37 34 33 33 32 31 29 25 24 24 24 24 25 25 24 25 28 30 28 28 30 30 30 30 29 28 26 22 19 21 24 25 24 22 21 21 19 16 15 15 15 15 15 16 17 18 17 17 18 18 16 15 15 15 15 18 23 33 45 54 58 63 71 78 81 81 82 83 77 72 73 77 77 74 75 78 83 86 77 65 64 68 66 66 68
46 43 40 37 35 34 33 32 31 30 27 25 26 24 24 25 24 25 26 27 27 26 26 28 28 26 25 24 23 21 17 20 23 24 23 22 20 20 20 19 17 15 15 15 15 15 16 16 17 17 17 18 18 17 16 15 14 15 16 19 25 35 46 55 61 68 76 82 82 83 87 85 79 74 73 76 75 73 77 82 88 84 69 63 68 70 69 69
Wind_Direction
241 244 245 246 248 248 249 250 250 250 251 251 251 252 252 252 253 253 252 250 249 248 247 246 246 245 244 243 242 242 241 242 243 242 241 240 240 239 239 239 239 239 239 238 237 236 233 232 230 230 228 227 228 227 226 223 221 217 217 228 232 236 235 242 256 277 300 303 316 325 330 340 346 346 350 355 0 4 10 13 14 13 15 23 29 34 41 38
247 249 249 250 250 250 251 251 252 252 252 252 252 252 252 253 253 254 255 254 253 250 249 248 247 246 246 245 244 243 242 242 242 243 242 241 240 239 239 239 239 238 238 238 237 237 235 233 231 230 229 227 227 227 226 225 224 219 218 225 226 233 237 237 246 259 273 279 303 316 320 339 342 342 348 355 359 2 8 13 15 14 15 22 28 32 38 36
254 255 255 255 255 254 253 253 253 253 253 253 253 253 253 253 254 254 255 256 255 254 252 250 248 247 246 246 245 245 244 243 243 243 243 242 241 240 239 239 238 238 237 237 237 237 236 235 233 231 229 228 227 226 226 226 225 222 218 222 222 226 234 235 236 238 247 263 294 308 312 335 336 337 346 354 359 1 6 12 15 15 15 20 28 30 35 34
260 261 261 260 259 258 257 256 255 255 255 255 255 254 254 253 253 253 254 255 256 256 255 253 251 249 247 246 246 245 244 244 243 243 243 242 242 241 240 239 238 237 237 237 237 236 236 235 234 232 230 229 227 226 226 226 225 224 221 222 225 228 237 240 236 234 242 261 287 298 303 321 327 332 342 353 359 360 5 11 15 16 16 20 28 29 32 33
265 265 265 264 263 262 261 259 258 257 257 257 257 256 255 254 253 253 253 253 254 255 255 255 254 252 249 248 246 245 244 244 243 243 243 242 242 241 240 240 239 238 236 236 236 236 236 235 234 233 232 230 228 226 225 226 225 226 224 225 228 229 238 244 242 237 241 254 270 283 293 308 318 324 338 354 358 359 5 10 14 16 17 20 27 30 29 31
269 269 269 268 268 267 266 264 262 261 260 260 259 258 257 256 255 254 253 252 252 252 253 254 255 254 253 250 248 246 245 244 243 243 243 243 242 241 240 239 239 238 237 236 235 235 235 235 234 233 232 231 229 227 225 226 225 226 226 227 229 229 234 242 244 240 242 248 254 265 280 296 308 313 332 353 357 357 4 10 13 15 19 21 26 31 30 30
275 274 274 274 273 272 270 269 267 265 264 263 262 261 259 258 256 255 254 254 253 252 251 251 253 254 254 253 251 249 247 245 244 243 243 243 242 242 241 240 239 238 237 236 235 234 235 235 234 233 232 232 230 228 226 226 225 226 227 229 230 230 233 240 244 242 242 245 244 247 264 284 301 305 323 348 356 355 2 10 12 14 20 23 26 31 33 30
282 281 280 280 279 277 276 274 272 270 269 267 265 264 262 260 258 257 256 255 254 253 252 251 250 251 252 252 252 251 250 248 245 244 243 242 242 242 241 240 239 238 237 236 235 234 234 234 233 232 231 231 231 229 227 226 226 226 227 228 229 229 231 237 241 239 232 231 231 228 246 278 297 299 309 342 353 352 0 9 11 13 21 25 26 32 35 33
288 287 287 287 285 284 282 280 278 276 274 272 270 267 265 263 260 258 257 256 255 254 253 251 250 249 249 250 250 251 251 250 248 246 244 243 242 241 241 240 239 238 237 236 235 234 233 233 232 231 230 230 230 229 227 226 226 227 227 228 229 228 228 232 236 234 222 216 214 210 225 266 287 292 299 334 350 348 357 8 11 11 20 26 26 32 37 36
293 293 294 293 291 290 289 287 285 283 281 278 275 272 269 266 263 260 258 257 255 254 253 252 251 249 248 248 248 249 249 250 250 248 246 244 243 241 240 240 239 238 237 236 235 234 233 232 231 230 230 229 229 228 227 226 225 226 228 228 228 226 226 231 234 230 219 215 210 202 218 250 267 279 287 312 341 345 353 5 10 8 18 26 26 31 39 39
297 297 297 296 296 295 294 293 291 290 288 285 282 278 274 270 266 263 260 258 256 254 253 252 251 249 248 247 247 246 247 248 248 249 248 247 245 243 241 240 239 238 237 236 235 234 233 233 232 231 230 229 228 227 226 226 224 224 226 227 227 226 225 229 233 226 218 217 209 203 213 231 251 269 277 288 318 345 352 0 7 6 15 24 25 29 37 42
300 300 300 299 299 298 298 297 296 294 292 290 287 284 279 275 270 265 262 258 256 254 252 251 250 249 248 247 246 245 245 245 246 247 247 247 247 245 243 241 240 238 237 236 236 235 234 233 232 231 230 229 228 226 225 224 223 223 225 226 225 225 224 228 231 224 221 219 208 208 214 219 237 263 272 273 289 335 351 357 2 3 14 22 23 27 35 42
302 302 302 302 302 302 301 300 299 297 295 293 290 287 283 279 275 269 264 260 256 253 251 250 249 248 247 246 245 244 244 244 244 244 244 245 246 246 245 243 241 240 238 237 236 235 234 233 232 230 229 229 227 226 224 223 222 222 225 227 225 224 223 227 231 225 225 223 212 214 219 223 232 248 261 262 267 308 348 353 357 360 11 19 22 26 33 42
305 305 305 305 305 305 305 303 302 300 298 295 292 289 286 283 279 274 269 263 258 254 250 248 247 247 246 245 244 243 243 242 243 243 242 243 243 245 245 245 243 242 240 238 237 235 234 234 232 230 228 228 227 226 224 223 221 218 220 225 224 222 220 223 228 225 221 219 214 215 218 225 227 233 245 250 256 264 334 346 351 358 9 17 22 28 32 41
307 307 308 308 308 308 308 307 305 303 301 298 294 292 289 286 283 278 273 267 262 256 251 248 246 245 244 243 243 242 241 241 241 241 241 241 241 242 243 244 244 243 242 240 238 236 235 234 232 229 227 226 226 225 224 222 221 217 216 219 219 219 219 218 223 222 217 215 217 217 218 224 221 226 242 245 249 250 240 329 338 353 5 12 20 30 33 40
308 309 310 310 311 311 310 310 308 306 304 300 297 294 291 288 285 281 276 271 265 259 254 250 246 244 243 242 242 241 240 240 240 241 241 241 240 240 241 241 242 243 243 242 240 238 235 234 233 231 228 226 225 225 224 221 220 219 217 218 216 218 220 219 220 220 218 218 220 218 218 224 217 214 233 243 246 243 225 251 303 338 360 8 16 31 38 41
309 310 311 312 312 312 312 311 310 308 306 303 300 297 293 290 287 283 278 272 267 261 256 251 247 245 243 242 241 240 240 240 240 240 240 240 240 240 239 239 240 240 241 242 241 240 237 235 234 232 229 225 224 224 223 221 220 220 219 218 216 216 218 218 220 221 222 223 224 223 220 222 220 211 217 230 240 239 225 226 248 295 352 6 15 30 42 45
309 310 311 312 312 312 312 312 311 310 308 305 303 299 296 292 288 284 279 273 267 261 256 252 248 245 243 242 241 240 240 239 239 240 240 240 240 239 239 239 239 238 239 240 241 240 239 237 235 233 230 226 224 223 222 221 221 219 219 219 216 217 217 216 216 217 218 219 218 220 218 216 217 215 212 217 231 235 223 213 220 233 306 355 22 34 44 49
309 310 310 311 311 311 312 312 311 311 309 307 304 301 297 293 289 285 279 273 267 262 257 252 248 245 243 242 241 240 240 239 239 239 239 239 239 239 238 238 238 238 238 238 239 239 239 238 236 234 231 228 226 224 222 221 220 218 218 218 216 216 216 215 215 213 212 211 209 210 211 210 211 213 211 211 221 230 223 210 210 213 214 227 140 75 54 54
308 309 309 310 310 311 311 311 311 311 309 307 304 301 298 294 290 285 280 273 267 262 257 252 249 245 243 241 240 239 239 238 238 238 238 238 238 238 238 238 237 237 237 237 237 237 238 238 238 236 233 231 227 224 222 221 220 217 217 216 215 215 214 213 214 213 211 209 208 210 210 208 209 208 206 207 214 222 222 214 210 212 206 196 197 178 126 68
307 307 308 309 309 310 311 311 311 311 310 308 305 302 298 294 290 285 280 273 266 261 256 251 248 244 241 239 238 237 237 237 237 236 237 237 237 237 237 237 237 236 236 236 236 236 237 237 238 238 236 233 230 226 223 222 219 218 217 216 215 214 213 212 212 212 211 209 209 212 211 208 209 208 205 207 212 217 219 216 209 210 209 196 192 195 179 157
305 306 307 307 308 309 310 311 311 311 310 308 305 302 298 294 290 286 279 272 265 259 254 249 245 241 238 235 234 234 234 235 236 236 237 237 238 238 238 238 237 236 236 236 236 236 236 236 237 237 237 236 232 228 225 223 220 219 217 216 215 214 213 212 213 212 211 211 211 214 213 209 207 208 206 206 211 214 215 217 212 208 210 205 195 196 193 183
303 304 305 307 308 309 310 310 310 310 309 307 304 301 297 294 290 284 276 269 262 256 250 245 240 236 234 232 230 230 230 231 232 233 235 237 238 239 240 240 238 238 237 236 236 235 235 235 236 236 237 236 234 230 226 224 221 219 217 217 215 214 213 212 213 213 211 212 212 213 213 207 203 206 208 207 209 212 212 214 216 209 206 211 205 200 201 193
302 303 305 306 307 308 309 309 309 309 307 306 303 300 297 293 288 281 271 263 258 251 246 240 235 232 230 228 227 227 226 226 226 228 231 233 236 238 239 241 241 240 239 238 237 235 235 234 234 235 236 236 236 233 229 225 223 220 218 218 216 214 213 211 212 213 211 211 212 211 209 203 201 206 210 210 209 212 212 212 218 215 207 212 210 202 206 201
302 303 304 305 306 307 308 308 308 307 307 305 302 299 295 290 285 276 263 255 251 245 241 237 232 227 224 223 223 223 223 223 224 226 230 233 235 237 238 240 242 242 242 241 239 237 236 235 234 234 235 235 236 235 232 229 225 223 220 219 217 214 213 212 212 212 211 210 212 211 207 201 200 205 209 210 209 210 212 210 216 219 215 215 210 199 204 205
301 302 303 304 305 306 307 307 307 306 306 305 302 298 293 287 281 269 253 245 241 236 234 231 226 222 218 217 217 219 220 221 225 231 236 239 241 242 242 243 244 245 245 244 242 240 239 237 235 234 234 234 235 235 234 231 228 225 222 220 218 214 214 214 212 212 211 209 211 211 207 201 199 205 208 208 208 209 210 208 212 220 220 219 213 202 201 204
300 301 302 303 304 305 306 306 306 306 305 303 301 298 292 284 275 260 242 234 230 227 227 227 224 220 216 216 216 219 222 225 232 239 244 248 250 250 249 249 249 248 248 248 245 243 241 240 237 236 234 233 233 234 233 233 230 226 223 221 218 214 214 215 213 213 212 209 210 209 206 200 197 204 210 208 206 208 208 206 209 217 220 217 214 209 203 203
299 300 301 303 304 304 304 304 305 304 303 301 300 297 290 281 270 254 237 229 227 227 228 229 229 226 223 223 223 225 229 233 239 245 250 255 258 259 259 258 256 254 253 252 249 247 244 243 240 237 236 234 233 233 232 233 231 227 224 221 219 216 215 215 213 213 212 209 209 207 205 199 194 201 211 210 207 208 208 206 207 213 218 215 213 212 207 205
298 300 301 302 302 302 303 303 302 301 300 298 297 295 289 278 266 251 236 229 228 230 232 232 233 233 232 233 233 235 240 244 248 252 257 261 264 265 266 265 263 261 259 256 253 250 247 246 243 240 238 235 233 232 230 231 231 228 226 223 219 217 216 215 214 213 212 210 209 207 206 201 194 198 208 210 208 208 208 207 206 209 215 215 213 212 208 206
297 299 300 300 300 300 301 301 300 298 296 295 293 291 287 276 263 251 238 231 229 231 233 234 236 238 239 241 243 246 249 251 255 258 261 267 270 272 271 271 269 268 266 262 258 254 249 247 245 242 240 237 234 232 230 230 230 228 227 224 220 218 216 215 214 212 212 211 209 207 207 203 197 198 206 210 210 209 208 208 206 208 213 214 213 213 210 207
297 298 298 298 298 299 299 298 297 295 294 291 289 287 283 274 262 250 240 233 230 230 233 236 238 240 242 245 248 251 254 257 260 264 268 272 276 278 278 277 276 274 272 268 264 259 253 248 245 243 242 239 236 233 229 229 228 227 227 225 221 218 217 215 213 212 212 212 209 207 208 205 199 198 202 208 212 210 208 209 206 207 212 214 215 214 212 209
296 296 296 296 297 297 297 296 295 294 291 288 285 282 278 272 262 251 242 236 233 231 232 235 238 240 243 246 250 254 258 262 265 269 273 278 281 283 284 283 282 280 277 273 268 263 257 252 247 243 240 239 238 235 231 228 226 225 225 226 223 219 217 215 212 211 212 211 208 207 208 205 201 199 197 203 210 210 209 211 208 207 211 214 216 216 214 212
294 294 295 295 295 295 294 294 293 292 290 287 284 280 275 270 262 254 246 240 237 234 233 234 236 239 242 246 250 255 259 265 269 272 275 280 284 287 288 287 286 285 281 276 270 264 259 254 249 244 241 238 236 236 233 229 226 224 224 225 224 221 218 216 212 210 211 210 208 206 207 205 202 200 197 200 207 208 209 212 210 209 212 214 216 217 215 214
294 294 294 294 293 293 292 292 291 290 290 288 285 279 274 269 263 257 251 245 241 238 236 235 236 239 242 245 250 254 260 265 270 275 278 281 285 289 291 291 289 287 282 275 269 263 258 254 250 246 243 238 235 234 233 231 226 222 222 223 224 222 219 216 213 211 210 210 208 207 207 206 203 201 198 199 204 205 208 213 212 211 212 214 216 218 217 215
294 294 294 292 291 290 290 289 288 289 290 290 287 282 275 270 265 260 255 250 246 242 239 237 237 239 241 245 250 254 260 265 270 275 280 283 287 290 292 292 291 288 282 273 266 261 257 254 251 248 244 241 237 234 232 231 227 223 221 221 222 222 220 216 214 212 210 209 210 208 207 207 205 201 199 199 201 203 206 212 214 213 211 212 215 218 219 216
295 294 293 291 290 289 287 285 285 287 290 291 289 286 280 273 268 263 258 254 250 246 242 239 237 238 240 243 248 254 260 266 271 277 281 285 288 291 292 292 292 288 279 269 265 263 258 254 252 250 247 244 241 236 232 230 228 224 220 218 220 221 219 217 215 213 210 209 210 209 207 207 205 202 200 199 198 200 205 211 215 215 213 210 213 216 218 218
295 295 294 292 290 287 283 280 282 285 288 291 291 290 284 277 273 268 262 258 254 250 245 241 238 237 238 241 247 254 261 268 274 279 284 288 291 293 294 294 292 285 274 267 265 264 260 256 253 251 249 247 245 241 235 231 229 225 220 218 218 218 218 216 215 213 210 209 211 211 208 207 205 203 202 201 198 196 202 210 214 217 216 211 212 214 216 220
293 294 294 292 289 285 280 277 279 282 286 290 292 291 287 283 280 275 269 262 257 253 248 243 240 238 239 242 246 255 263 270 276 282 287 291 293 295 297 297 292 281 269 266 267 265 262 258 254 252 251 249 247 245 241 234 229 225 221 218 215 215 216 216 214 213 211 209 210 211 210 207 205 203 201 201 200 196 197 206 212 216 218 214 211 210 211 220
289 291 291 289 288 284 279 276 276 278 281 285 289 290 289 287 284 280 274 266 260 255 250 246 243 242 243 245 250 257 264 271 277 283 288 292 295 298 300 297 290 275 266 267 268 266 264 260 257 254 253 251 248 245 243 239 232 226 223 219 215 214 214 214 213 213 212 209 209 210 210 207 205 204 202 201 203 199 194 201 209 215 218 216 211 207 207 215
284 285 286 285 285 283 278 275 274 275 277 280 283 285 286 286 283 280 275 268 262 258 255 251 249 247 248 251 255 261 267 273 278 283 288 292 296 300 300 296 285 269 264 267 269 268 267 265 261 257 254 252 250 245 241 240 235 227 223 219 214 213 212 212 212 212 212 211 209 210 210 207 204 205 203 201 202 201 194 195 205 213 217 218 213 208 207 212
282 281 280 280 280 279 277 275 273 273 274 275 277 280 281 281 280 278 274 269 266 262 259 256 255 254 254 256 260 264 269 274 279 283 288 291 297 301 299 292 279 265 264 268 269 270 270 270 268 265 259 254 252 247 240 239 235 228 223 218 214 212 211 211 211 211 211 210 210 210 209 207 205 205 205 202 203 204 198 193 200 210 215 218 215 210 209 213
283 280 278 276 276 275 274 273 272 272 272 273 274 276 277 277 278 276 274 271 269 265 263 261 259 259 259 261 264 267 271 275 279 284 287 291 297 300 295 286 271 263 266 269 270 271 273 274 272 271 267 260 254 248 240 237 235 231 225 218 213 210 209 209 210 211 210 209 210 210 207 207 205 204 204 201 202 206 203 194 196 206 213 215 215 213 210 212
284 282 279 277 275 274 272 271 271 270 271 272 272 273 274 275 276 275 274 272 269 267 265 264 263 263 263 264 267 269 272 276 279 282 286 290 296 297 289 277 266 264 268 269 270 273 276 277 275 275 273 267 259 251 242 237 234 230 226 220 213 209 209 209 209 212 211 210 210 209 206 206 206 205 204 199 200 207 205 197 196 203 211 214 214 214 212 212
281 281 280 279 277 276 274 272 270 270 269 269 270 272 273 274 275 275 275 273 270 268 266 265 265 265 266 267 268 270 272 275 278 281 284 289 294 291 280 267 262 265 267 267 269 273 277 278 278 278 275 271 263 253 244 238 232 226 222 218 212 208 209 209 208 210 211 210 211 209 205 205 205 206 204 200 201 206 204 200 197 201 210 214 213 214 214 213
277 278 279 280 280 279 277 276 274 272 270 269 269 270 271 273 275 275 275 274 272 269 266 265 264 265 266 268 268 270 271 273 275 278 283 288 290 282 269 260 262 266 267 267 269 272 276 277 278 279 277 274 266 255 245 237 230 222 216 213 210 206 207 208 208 209 210 210 211 209 206 204 204 206 204 201 202 205 204 202 199 201 210 214 214 215 215 215
273 275 276 278 279 280 280 280 278 275 273 270 269 269 270 272 273 274 274 274 273 271 269 267 265 265 266 266 267 268 270 271 273 276 281 285 281 270 261 259 263 267 268 268 270 272 274 275 276 278 278 276 271 261 249 236 228 222 213 209 209 207 206 207 207 209 210 209 210 210 207 205 205 205 204 202 203 204 203 202 200 202 209 214 214 214 215 216
269 270 272 274 277 279 280 281 280 278 276 272 270 270 269 268 270 273 273 273 274 273 271 269 269 268 267 267 268 268 268 269 271 275 279 279 269 257 256 259 263 267 269 270 271 273 273 274 274 276 278 277 274 268 255 239 228 221 213 208 208 209 210 209 207 208 210 209 209 210 209 207 205 203 203 203 203 203 203 202 201 203 209 213 215 214 214 216
265 265 267 270 272 276 278 279 279 279 276 272 269 267 266 267 269 271 272 274 274 273 272 271 270 269 269 269 269 267 267 268 269 272 274 269 257 250 254 260 263 266 270 271 274 275 274 274 274 274 276 275 274 271 261 247 233 222 216 211 208 209 213 213 209 207 208 209 209 210 209 208 206 204 203 204 203 202 203 203 201 203 208 212 215 215 215 217
261 261 263 266 267 271 275 275 277 276 272 268 265 264 267 270 270 270 273 275 273 272 274 272 270 269 269 268 267 266 266 265 265 265 261 253 247 248 254 258 261 265 270 274 278 280 278 276 275 273 275 274 272 272 267 255 242 228 220 216 213 212 214 215 213 210 207 207 208 210 210 208 207 205 205 205 205 204 205 203 201 203 206 209 213 215 215 217
257 258 259 261 263 266 269 271 273 272 269 266 265 266 269 271 271 274 276 274 272 274 275 273 272 270 268 267 266 265 264 261 256 248 242 239 240 246 253 257 260 264 271 277 281 284 282 279 277 274 273 274 273 272 270 263 252 239 227 222 218 216 216 215 213 212 208 205 206 208 208 206 205 207 208 206 205 206 206 203 201 202 203 205 209 212 214 217
253 254 255 258 259 260 264 266 268 269 266 265 266 266 268 271 273 276 275 272 274 277 275 274 273 270 268 268 266 262 257 248 238 231 230 233 237 242 250 257 261 264 270 278 284 288 287 283 281 277 273 274 274 271 271 268 260 251 238 230 224 220 218 215 212 212 210 207 205 207 207 205 203 207 210 207 205 208 208 203 201 201 199 201 205 208 211 215
249 250 252 254 255 256 259 261 264 265 265 264 265 266 267 270 273 275 274 275 278 279 276 274 273 271 269 266 261 254 239 226 226 225 228 233 236 241 249 258 264 267 270 277 285 291 294 289 287 285 277 274 274 272 272 270 265 260 249 239 230 222 219 216 212 210 210 209 207 206 208 206 202 203 207 206 205 209 210 204 201 201 198 196 200 205 209 213